C/2021 C5 ( PanSTARRS )

Japanese version
Home page
Updated on September 4, 2024

---------------------------------------------------------------------

* Profile

Discovery Date February 12, 2021
Magnitude 21.0 mag
Discoverer Pan-STARRS 1 telescope (Haleakala)

* Pictures

* Orbital Elements

Epoch 2024 Mar. 31.0 TT = JDT 2460400.5
T 2023 Feb. 11.01625 TT                                 Rudenko
q   3.2418302            (2000.0)            P               Q
z  +0.0005421      Peri.  270.91799     -0.36153299     +0.81155856
 +/-0.0000016      Node   323.67426     -0.16777766     -0.54087507
e   0.9982427      Incl.   50.78874     -0.91713933     -0.22096800
>From 457 observations 2020 Dec. 22-2024 July 3, mean residual 0".6.

* Finding Charts

* Magnitudes Graph

        m1 = 8.5 + 5 log d + 12.0 log r(t + 250)

        * Gray curve is:  m1 = 8.5 + 5 log d + 10.0 log r

---------------------------------------------------------------------

The orbital elements are published on M.P.E.C. 2024-N80.
The charts are made with StellaNavigator Ver.10 (AstroArts).
The magnitudes graphs are made with Comet for Windows.

---------------------------------------------------------------------

Copyright(C) Seiichi Yoshida (comet@aerith.net). All rights reserved.